Shaw AFB, SC

5:57 AM EDT on September 23, 2017 (GMT -0400)
Shaw Air Force Base

Weather History for KSSC - February, 2013

Change the Weather History Date:

Monday, February 11, 2013

  Actual Average Record
Temperature  
Mean Temperature 59 °F -  
Max Temperature 68 °F 56 °F 75 °F (1999)
Min Temperature 50 °F 35 °F 24 °F (2007)
Degree Days  
Heating Degree Days 6    
Growing Degree Days 9 (Base 50)    
Moisture  
Dew Point 57 °F    
Average Humidity 91    
Maximum Humidity 100    
Minimum Humidity 68    
Precipitation  
Precipitation 0.61 in - - ()
Sea Level Pressure  
Sea Level Pressure 30.09 in    
Wind  
Wind Speed 10 mph (SSW)    
Max Wind Speed 20 mph    
Max Gust Speed 26 mph    
Visibility 9 miles    
Events Rain    
Averages and records for this station are not official NWS values.
T = Trace of Precipitation, MM = Missing Value Source: NWS Daily Summary

Daily Weather History Graph

Daily Weather History Graph

Search for Another Location

Airport or City:

Trip Planner

Search our weather history database for the weather conditions in past years. The results will help you decide how hot, cold, wet, or windy it might be!

Date:

Astronomy

Feb. 11, 2013 Rise Set
Actual Time 7:10 AM EST 6:02 PM EST
Civil Twilight 6:44 AM EST 6:28 PM EST
Nautical Twilight 6:15 AM EST 6:57 PM EST
Astronomical Twilight 5:45 AM EST 7:26 PM EST
Moon 7:40 AM EST (2/11) 7:49 PM EST (2/11)
Length of Visible Light 11h 43m
Length of Day
10h 52m
Waxing Crescent, 3% of the Moon is Illuminated
Feb 11
Waxing Crescent
Feb 17
First Quarter
Feb 25
Full
Mar 4
Last Quarter
Mar 11
New

Hourly Weather History & Observations

Time (EST) Temp. Dew Point Humidity Pressure Visibility Wind Dir Wind Speed Gust Speed Precip Events Conditions
12:19 AM 50.0 °F 48.2 °F 94% 30.24 in 6.0 mi East 5.8 mph - N/A Rain Light Rain
12:44 AM 50.0 °F 48.2 °F 94% 30.24 in 6.0 mi East 4.6 mph - N/A Rain Rain
12:46 AM 50.0 °F 48.2 °F 94% 30.24 in 6.0 mi ESE 4.6 mph - N/A Rain Light Rain
12:55 AM 50.9 °F 48.9 °F 93% 30.23 in 6.0 mi East 5.8 mph - 0.12 in Rain Light Rain
1:55 AM 51.6 °F 50.5 °F 96% 30.19 in 6.0 mi SE 6.9 mph - 0.13 in Rain Light Rain
2:03 AM 51.8 °F 50.0 °F 94% 30.18 in 6.0 mi SE 6.9 mph - N/A Rain Light Rain
2:55 AM 53.4 °F 52.9 °F 98% 30.16 in 6.0 mi SE 9.2 mph - 0.07 in Rain Light Rain
2:58 AM 53.6 °F 53.6 °F 100% 30.16 in 5.0 mi SE 8.1 mph - N/A Rain Light Rain
3:01 AM 53.6 °F 53.6 °F 100% 30.15 in 5.0 mi SE 8.1 mph - N/A Rain Light Rain
3:14 AM 53.6 °F 53.6 °F 100% 30.14 in 5.0 mi SSE 8.1 mph - N/A Rain Light Rain
3:16 AM 53.6 °F 53.6 °F 100% 30.14 in 5.0 mi ESE 5.8 mph - N/A Rain Light Rain
3:22 AM 53.6 °F 53.6 °F 100% 30.14 in 7.0 mi SE 6.9 mph - N/A Rain Light Rain
3:39 AM 55.4 °F 53.6 °F 94% 30.12 in 10.0 mi SE 8.1 mph - N/A   Overcast
3:55 AM 54.9 °F 54.5 °F 99% 30.12 in 10.0 mi SE 8.1 mph - 0.03 in   Overcast
4:37 AM 55.4 °F 55.4 °F 100% 30.11 in 10.0 mi South 9.2 mph - N/A Rain Light Rain
4:38 AM 55.4 °F 55.4 °F 100% 30.11 in 10.0 mi South 9.2 mph - N/A Rain Light Rain
4:49 AM 57.2 °F 55.4 °F 94% 30.11 in 10.0 mi South 9.2 mph - N/A Rain Light Rain
4:55 AM 56.7 °F 56.5 °F 99% 30.11 in 10.0 mi South 11.5 mph - 0.01 in Rain Light Rain
5:09 AM 57.2 °F 57.2 °F 100% 30.11 in 10.0 mi South 12.7 mph - N/A   Overcast
5:16 AM 57.2 °F 57.2 °F 100% 30.12 in 10.0 mi South 13.8 mph - N/A Rain Light Rain
5:32 AM 57.2 °F 57.2 °F 100% 30.11 in 10.0 mi South 11.5 mph 19.6 mph N/A Rain Light Rain
5:51 AM 59.0 °F 57.2 °F 94% 30.11 in 10.0 mi South 13.8 mph - N/A Rain Light Rain
5:55 AM 58.3 °F 57.6 °F 97% 30.11 in 10.0 mi South 18.4 mph - 0.02 in Rain Light Rain
6:12 AM 59.0 °F 57.2 °F 94% 30.11 in 10.0 mi South 19.6 mph - N/A Rain Light Rain
6:27 AM 59.0 °F 57.2 °F 94% 30.12 in 10.0 mi South 15.0 mph 26.5 mph N/A Rain Light Rain
6:29 AM 59.0 °F 57.2 °F 94% 30.12 in 10.0 mi SSW 18.4 mph 26.5 mph N/A Rain Light Rain
6:55 AM 58.6 °F 57.0 °F 94% 30.11 in 10.0 mi SSW 16.1 mph - 0.02 in Rain Light Rain
6:57 AM 59.0 °F 57.2 °F 94% 30.11 in 10.0 mi South 17.3 mph - N/A Rain Light Rain
7:10 AM 59.0 °F 57.2 °F 94% 30.11 in 10.0 mi South 12.7 mph 24.2 mph N/A Rain Light Rain
7:17 AM 59.0 °F 57.2 °F 94% 30.11 in 10.0 mi South 13.8 mph - N/A Rain Light Rain
7:27 AM 59.0 °F 57.2 °F 94% 30.11 in 10.0 mi South 16.1 mph - N/A Rain Light Rain
7:55 AM 59.7 °F 57.9 °F 94% 30.11 in 10.0 mi South 16.1 mph 21.9 mph 0.02 in Rain Light Rain
8:24 AM 60.8 °F 57.2 °F 88% 30.11 in 10.0 mi SSW 18.4 mph 23.0 mph N/A   Overcast
8:39 AM 60.8 °F 59.0 °F 94% 30.11 in 10.0 mi South 18.4 mph 21.9 mph N/A Rain Light Rain
8:55 AM 60.4 °F 58.5 °F 93% 30.11 in 10.0 mi SSW 17.3 mph 24.2 mph 0.01 in Rain Light Rain
9:55 AM 61.5 °F 59.5 °F 93% 30.11 in 10.0 mi SSW 15.0 mph - 0.02 in Rain Light Rain
10:25 AM 60.8 °F 59.0 °F 94% 30.11 in 10.0 mi SSW 15.0 mph - N/A Rain Light Rain
10:33 AM 60.8 °F 59.0 °F 94% 30.11 in 10.0 mi SSW 16.1 mph 25.3 mph N/A Rain Light Rain
10:48 AM 62.6 °F 59.0 °F 88% 30.10 in 10.0 mi SSW 13.8 mph 23.0 mph N/A   Light Drizzle
10:59 AM 61.7 °F 59.4 °F 92% 30.09 in 10.0 mi South 12.7 mph - 0.02 in Rain Light Rain
11:17 AM 62.6 °F 59.0 °F 88% 30.06 in 10.0 mi South 12.7 mph - N/A Rain Light Rain
11:26 AM 62.6 °F 60.8 °F 94% 30.06 in 10.0 mi South 12.7 mph - N/A Rain Light Rain
11:58 AM 63.1 °F 60.3 °F 90% 30.07 in 10.0 mi SSW 15.0 mph 24.2 mph 0.00 in   Overcast
12:13 PM 62.6 °F 60.8 °F 94% 30.07 in 10.0 mi SSW 16.1 mph 19.6 mph N/A   Overcast
12:54 PM 64.4 °F 59.0 °F 83% 30.07 in 10.0 mi SW 12.7 mph 20.7 mph N/A   Overcast
12:58 PM 63.9 °F 59.4 °F 85% 30.06 in 10.0 mi SW 13.8 mph 20.7 mph N/A   Overcast
1:58 PM 65.8 °F 58.6 °F 78% 30.04 in 10.0 mi SW 11.5 mph - N/A   Overcast
2:18 PM 66.2 °F 59.0 °F 78% 30.04 in 10.0 mi WSW 11.5 mph - N/A   Overcast
2:53 PM 68.0 °F 59.0 °F 73% 30.02 in 10.0 mi SW 11.5 mph - N/A   Overcast
2:58 PM 68.0 °F 59.0 °F 73% 30.02 in 10.0 mi SW 13.8 mph - N/A   Overcast
3:55 PM 68.0 °F 57.2 °F 68% 30.02 in 10.0 mi SW 12.7 mph - N/A   Light Drizzle
3:58 PM 67.6 °F 58.1 °F 71% 30.02 in 10.0 mi SW 10.4 mph - 0.00 in   Light Drizzle
4:15 PM 66.2 °F 59.0 °F 78% 30.03 in 10.0 mi SW 10.4 mph - N/A   Mostly Cloudy
4:43 PM 66.2 °F 59.0 °F 78% 30.02 in 10.0 mi SW 8.1 mph - N/A Rain Light Rain
4:48 PM 64.4 °F 60.8 °F 88% 30.03 in 10.0 mi SW 9.2 mph - N/A Rain Light Rain
4:58 PM 64.8 °F 60.6 °F 86% 30.03 in 10.0 mi WSW 6.9 mph - 0.01 in   Light Drizzle
5:03 PM 64.4 °F 60.8 °F 88% 30.03 in 10.0 mi SW 6.9 mph - N/A Rain Light Rain
5:58 PM 64.0 °F 62.1 °F 93% 30.05 in 10.0 mi SW 10.4 mph - 0.02 in Rain Light Rain
6:00 PM 64.4 °F 62.6 °F 94% 30.05 in 10.0 mi SW 9.2 mph - N/A Rain Light Rain
6:15 PM 64.4 °F 62.6 °F 94% 30.04 in 9.0 mi SW 11.5 mph - N/A Rain Light Rain
6:21 PM 64.4 °F 60.8 °F 88% 30.04 in 10.0 mi SW 10.4 mph - N/A Rain Light Rain
6:58 PM 62.6 °F 59.9 °F 91% 30.04 in 10.0 mi SW 10.4 mph - 0.04 in Rain Light Rain
8:58 PM 60.4 °F 56.7 °F 87% 30.04 in 10.0 mi West 10.4 mph - 0.03 in Rain Light Rain
9:24 PM 59.0 °F 55.4 °F 88% 30.07 in 10.0 mi West 11.5 mph - N/A Rain Light Rain
9:58 PM 58.3 °F 53.6 °F 84% 30.04 in 10.0 mi WSW 10.4 mph - 0.03 in Rain Light Rain
10:05 PM 59.0 °F 53.6 °F 82% 30.04 in 10.0 mi WSW 9.2 mph - N/A   Overcast
10:20 PM 57.2 °F 51.8 °F 82% 30.03 in 10.0 mi SW 11.5 mph - N/A   Scattered Clouds
10:58 PM 57.4 °F 52.7 °F 84% 30.03 in 10.0 mi SW 12.7 mph - 0.01 in   Clear
11:19 PM 57.2 °F 51.8 °F 82% 30.03 in 10.0 mi SW 11.5 mph - N/A   Light Drizzle
11:58 PM 56.8 °F 52.5 °F 85% 30.03 in 10.0 mi SW 12.7 mph - 0.00 in Rain Light Rain